This is the latest recevied weather packets stored in our database for station/object KD0RIH. If no packets are shown the sender has not sent any weather packets the latest 10 day(s).
| Time | Temp. | Humidity | Pressure | Rain* | Wind** | Luminosity | Snow |
|---|---|---|---|---|---|---|---|
| 1777927824 | 28.33° C | 36% | 1001 hPa | 0 mm | - | 615 W/m² | - |
| 1777927521 | 28.89° C | 34% | 1001.2 hPa | 0 mm | - | 624 W/m² | - |
| 1777927220 | 28.33° C | 35% | 1001.2 hPa | 0 mm | - | 529 W/m² | - |
| 1777926918 | 28.33° C | 36% | 1001.4 hPa | 0 mm | - | 548 W/m² | - |
| 1777926615 | 28.33° C | 37% | 1001.3 hPa | 0 mm | - | 688 W/m² | - |
| 1777926310 | 28.89° C | 36% | 1001.6 hPa | 0 mm | - | 725 W/m² | - |
| 1777926002 | 28.89° C | 34% | 1001.6 hPa | 0 mm | - | 820 W/m² | - |
| 1777925699 | 28.89° C | 34% | 1001.6 hPa | 0 mm | - | 823 W/m² | - |
| 1777925396 | 28.33° C | 36% | 1001.5 hPa | 0 mm | - | 751 W/m² | - |
| 1777925093 | 28.89° C | 33% | 1001.8 hPa | 0 mm | - | 833 W/m² | - |
| 1777924790 | 28.33° C | 36% | 1001.7 hPa | 0 mm | - | 842 W/m² | - |
| 1777924486 | 28.89° C | 35% | 1001.6 hPa | 0 mm | - | 850 W/m² | - |
| 1777924182 | 28.89° C | 35% | 1001.6 hPa | 0 mm | - | 861 W/m² | - |
| 1777923879 | 28.33° C | 36% | 1001.7 hPa | 0 mm | - | 872 W/m² | - |
| 1777923575 | 28.33° C | 34% | 1001.6 hPa | 0 mm | - | 884 W/m² | - |
| 1777923272 | 27.78° C | 35% | 1001.6 hPa | 0 mm | - | 894 W/m² | - |
| 1777922971 | 27.22° C | 39% | 1001.7 hPa | 0 mm | - | 904 W/m² | - |
| 1777922667 | 27.78° C | 35% | 1001.7 hPa | 0 mm | - | 913 W/m² | - |
| 1777922366 | 27.78° C | 36% | 1001.6 hPa | 0 mm | - | 920 W/m² | - |
| 1777922064 | 27.22° C | 38% | 1001.8 hPa | 0 mm | - | 927 W/m² | - |
| 1777921759 | 27.78° C | 37% | 1001.9 hPa | 0 mm | - | 933 W/m² | - |
| 1777921455 | 27.78° C | 36% | 1001.9 hPa | 0 mm | - | 939 W/m² | - |
| 1777921152 | 27.78° C | 35% | 1002.1 hPa | 0 mm | - | 947 W/m² | - |
| 1777920849 | 28.33° C | 34% | 1001.8 hPa | 0 mm | - | 953 W/m² | - |
| 1777920545 | 27.78° C | 37% | 1001.9 hPa | 0 mm | - | 955 W/m² | - |
* Rain latest hour (hover to see other rain measurements)
** Current wind speed in m/s (hover to see current wind gust speed)